Location: Bogis-Bossey
(46.3500°N, 6.1667°E)
Time: 17:20:56
(UTC+00:00)

Cosmos 1943 Rocket - Pass Details

Date: 17 August 2022
Orbit: 813 x 842 km, 71.0° (Epoch: 30 September)

Event Time Altitude Azimuth Distance (km) Brightness Sun altitude
Exits shadow 23:49:19 38° 292° (WNW) 1,250 3.1 -30.4°
Maximum altitude 23:49:50 39° 305° (NW) 1,231 3.2 -30.4°
Drops below altitude 10° 23:55:06 10° 15° (NNE) 2,448 5.5 -30.4°
Sets 23:57:42 0° 23° (NNE) 3,380 6.4 -30.3°
